When you browse on this site, cookies collect data to enhance your experience and personalize the content and advertising you see.
Visit our Privacy Policy to learn more. By continuing to use the site, you agree to this use of cookies and data.
  • In Lithuania
  • List of Countries
  • For 7 days
  • Water Temperature
  • Weather Map
  • Weather Widgets
  • user-avatar
    Login

    Hourly Weather Havlickuv Brod

    Today, 17 September, Tuesday

    Time Temperature Precipitation Wind Pressure Humidity
    00:00 +15°C° 0.5 mm 2 mps 722 mmHg 93%
    01:00 +13°C° 0.5 mm 3 mps 722 mmHg 94%
    02:00 +13°C° 0.3 mm 3 mps 722 mmHg 94%
    03:00 +13°C° 0.3 mm 2 mps 722 mmHg 94%
    04:00 +12°C° 0.3 mm 2 mps 722 mmHg 95%
    05:00 +11°C° 0 mm 3 mps 722 mmHg 92%
    06:00 +11°C° 0 mm 3 mps 722 mmHg 90%
    07:00 +10°C° 0 mm 3 mps 722 mmHg 88%
    08:00 +11°C° 0 mm 3 mps 722 mmHg 83%
    09:00 +12°C° 0 mm 3 mps 722 mmHg 78%
    10:00 +13°C° 0 mm 4 mps 722 mmHg 74%
    11:00 +14°C° 0 mm 4 mps 722 mmHg 71%
    12:00 +15°C° 0 mm 5 mps 722 mmHg 69%
    13:00 +15°C° 0 mm 5 mps 721 mmHg 66%
    14:00 +16°C° 0 mm 6 mps 721 mmHg 63%
    15:00 +16°C° 0 mm 6 mps 721 mmHg 60%
    16:00 +16°C° 0 mm 6 mps 720 mmHg 57%
    17:00 +15°C° 0 mm 6 mps 720 mmHg 61%
    18:00 +13°C° 0 mm 6 mps 721 mmHg 65%
    19:00 +10°C° 0 mm 5 mps 721 mmHg 69%
    20:00 +10°C° 0 mm 6 mps 721 mmHg 71%
    21:00 +9°C° 0 mm 7 mps 722 mmHg 72%
    22:00 +8°C° 0 mm 7 mps 723 mmHg 74%
    23:00 +6°C° 0 mm 7 mps 723 mmHg 74%

    Tomorrow, 18 September, Wednesday

    Time Temperature Precipitation Wind Pressure Humidity
    00:00 +5°C° 0 mm 6 mps 723 mmHg 74%
    01:00 +5°C° 0 mm 6 mps 724 mmHg 74%
    02:00 +4°C° 0 mm 6 mps 724 mmHg 76%
    03:00 +5°C° 0 mm 5 mps 724 mmHg 78%
    04:00 +3°C° 0 mm 5 mps 724 mmHg 80%
    05:00 +4°C° 0 mm 6 mps 725 mmHg 80%
    06:00 +4°C° 0 mm 6 mps 725 mmHg 80%
    07:00 +4°C° 0 mm 6 mps 726 mmHg 80%
    08:00 +7°C° 0 mm 6 mps 726 mmHg 74%
    09:00 +8°C° 0 mm 6 mps 726 mmHg 69%
    10:00 +9°C° 0 mm 6 mps 727 mmHg 64%
    11:00 +10°C° 0 mm 5 mps 727 mmHg 61%
    12:00 +12°C° 0 mm 5 mps 726 mmHg 58%
    13:00 +13°C° 0 mm 5 mps 726 mmHg 55%
    14:00 +12°C° 0 mm 5 mps 726 mmHg 56%
    15:00 +12°C° 0 mm 5 mps 726 mmHg 57%
    16:00 +10°C° 0 mm 5 mps 726 mmHg 58%
    17:00 +10°C° 0 mm 4 mps 726 mmHg 63%
    18:00 +9°C° 0 mm 3 mps 726 mmHg 69%
    19:00 +8°C° 0 mm 2 mps 726 mmHg 74%
    20:00 +7°C° 0 mm 2 mps 727 mmHg 76%
    21:00 +7°C° 0 mm 2 mps 727 mmHg 79%
    22:00 +6°C° 0 mm 2 mps 727 mmHg 81%
    23:00 +5°C° 0 mm 2 mps 728 mmHg 82%

    Day after tomorrow, 19 September, Thursday

    Time Temperature Precipitation Wind Pressure Humidity
    00:00 +5°C° 0 mm 2 mps 728 mmHg 82%
    01:00 +5°C° 0 mm 2 mps 728 mmHg 83%
    02:00 +4°C° 0 mm 2 mps 728 mmHg 85%
    03:00 +4°C° 0 mm 2 mps 728 mmHg 87%
    04:00 +3°C° 0 mm 3 mps 727 mmHg 89%
    05:00 +3°C° 0 mm 3 mps 728 mmHg 87%
    06:00 +4°C° 0 mm 3 mps 728 mmHg 84%
    07:00 +4°C° 0 mm 3 mps 728 mmHg 81%
    08:00 +5°C° 0 mm 4 mps 729 mmHg 75%
    09:00 +7°C° 0 mm 4 mps 729 mmHg 69%
    10:00 +8°C° 0 mm 5 mps 729 mmHg 62%
    11:00 +10°C° 0 mm 4 mps 729 mmHg 60%
    12:00 +11°C° 0 mm 4 mps 729 mmHg 58%
    13:00 +11°C° 0 mm 4 mps 729 mmHg 56%
    14:00 +11°C° 0 mm 4 mps 729 mmHg 57%
    15:00 +11°C° 0 mm 4 mps 729 mmHg 58%
    16:00 +11°C° 0 mm 4 mps 729 mmHg 59%
    17:00 +9°C° 0 mm 3 mps 729 mmHg 65%
    18:00 +8°C° 0 mm 3 mps 729 mmHg 71%
    19:00 +6°C° 0 mm 2 mps 730 mmHg 78%
    20:00 +6°C° 0 mm 2 mps 730 mmHg 80%
    21:00 +6°C° 0 mm 2 mps 730 mmHg 82%
    22:00 +5°C° 0 mm 2 mps 730 mmHg 85%
    23:00 +5°C° 0 mm 2 mps 730 mmHg 87%

    20 September, Friday

    Time Temperature Precipitation Wind Pressure Humidity
    00:00 +5°C° 0 mm 2 mps 730 mmHg 89%
    01:00 +5°C° 0 mm 1 mps 730 mmHg 91%
    02:00 +5°C° 0 mm 1 mps 730 mmHg 91%
    03:00 +5°C° 0 mm 1 mps 730 mmHg 92%
    04:00 +5°C° 0 mm 1 mps 730 mmHg 92%
    05:00 +5°C° 0 mm 1 mps 730 mmHg 90%
    06:00 +6°C° 0 mm 1 mps 730 mmHg 88%
    07:00 +6°C° 0 mm 1 mps 730 mmHg 86%
    08:00 +7°C° 0 mm 2 mps 731 mmHg 79%
    09:00 +9°C° 0 mm 2 mps 731 mmHg 73%
    10:00 +11°C° 0 mm 3 mps 731 mmHg 66%
    11:00 +12°C° 0 mm 2 mps 731 mmHg 62%
    12:00 +13°C° 0 mm 2 mps 731 mmHg 58%
    13:00 +14°C° 0 mm 2 mps 730 mmHg 53%
    14:00 +14°C° 0 mm 2 mps 730 mmHg 53%
    15:00 +13°C° 0 mm 3 mps 730 mmHg 54%
    16:00 +13°C° 0 mm 3 mps 730 mmHg 54%
    17:00 +12°C° 0 mm 2 mps 730 mmHg 61%
    18:00 +10°C° 0 mm 1 mps 730 mmHg 67%
    19:00 +9°C° 0 mm 1 mps 730 mmHg 74%
    20:00 +8°C° 0 mm 1 mps 730 mmHg 77%
    21:00 +7°C° 0 mm 0 mps 730 mmHg 79%
    22:00 +6°C° 0 mm 0 mps 731 mmHg 82%
    23:00 +6°C° 0 mm 0 mps 730 mmHg 83%

    21 September, Saturday

    Time Temperature Precipitation Wind Pressure Humidity
    00:00 +7°C° 0 mm 1 mps 730 mmHg 84%
    01:00 +7°C° 0 mm 1 mps 730 mmHg 85%
    02:00 +6°C° 0 mm 1 mps 730 mmHg 85%
    03:00 +6°C° 0 mm 1 mps 730 mmHg 85%
    04:00 +6°C° 0 mm 1 mps 730 mmHg 86%
    05:00 +7°C° 0 mm 1 mps 730 mmHg 83%
    06:00 +6°C° 0 mm 2 mps 730 mmHg 81%
    07:00 +7°C° 0 mm 2 mps 730 mmHg 78%
    08:00 +9°C° 0 mm 2 mps 730 mmHg 71%
    09:00 +11°C° 0 mm 3 mps 730 mmHg 63%
    10:00 +13°C° 0 mm 4 mps 730 mmHg 56%
    11:00 +14°C° 0 mm 4 mps 730 mmHg 54%
    12:00 +14°C° 0 mm 4 mps 730 mmHg 53%
    13:00 +15°C° 0 mm 4 mps 729 mmHg 52%
    14:00 +15°C° 0 mm 4 mps 729 mmHg 53%
    15:00 +15°C° 0 mm 4 mps 729 mmHg 54%
    16:00 +15°C° 0 mm 4 mps 728 mmHg 55%
    17:00 +13°C° 0 mm 4 mps 728 mmHg 59%
    18:00 +11°C° 0 mm 4 mps 728 mmHg 63%
    19:00 +10°C° 0 mm 4 mps 728 mmHg 67%
    20:00 +10°C° 0 mm 4 mps 728 mmHg 65%
    21:00 +9°C° 0 mm 5 mps 728 mmHg 62%
    22:00 +9°C° 0 mm 5 mps 728 mmHg 59%
    23:00 +8°C° 0 mm 5 mps 728 mmHg 59%

    22 September, Sunday

    Time Temperature Precipitation Wind Pressure Humidity
    00:00 +8°C° 0 mm 5 mps 728 mmHg 58%
    01:00 +8°C° 0 mm 5 mps 728 mmHg 58%
    02:00 +8°C° 0 mm 5 mps 728 mmHg 59%
    03:00 +7°C° 0 mm 6 mps 728 mmHg 60%
    04:00 +7°C° 0 mm 6 mps 728 mmHg 61%
    05:00 +7°C° 0 mm 6 mps 727 mmHg 61%
    06:00 +7°C° 0 mm 6 mps 727 mmHg 62%
    07:00 +7°C° 0 mm 6 mps 727 mmHg 62%
    08:00 +9°C° 0 mm 7 mps 728 mmHg 59%
    09:00 +11°C° 0 mm 7 mps 728 mmHg 55%
    10:00 +12°C° 0 mm 8 mps 728 mmHg 52%
    11:00 +15°C° 0 mm 8 mps 728 mmHg 50%
    12:00 +16°C° 0 mm 8 mps 727 mmHg 48%
    13:00 +17°C° 0 mm 8 mps 727 mmHg 45%
    14:00 +17°C° 0 mm 7 mps 727 mmHg 46%
    15:00 +17°C° 0 mm 7 mps 726 mmHg 47%
    16:00 +17°C° 0 mm 6 mps 726 mmHg 47%
    17:00 +15°C° 0 mm 6 mps 726 mmHg 48%
    18:00 +14°C° 0 mm 6 mps 726 mmHg 50%
    19:00 +13°C° 0 mm 5 mps 726 mmHg 51%
    20:00 +11°C° 0 mm 6 mps 726 mmHg 50%
    21:00 +11°C° 0 mm 6 mps 726 mmHg 49%
    22:00 +11°C° 0 mm 7 mps 726 mmHg 48%
    23:00 +11°C° 0 mm 6 mps 726 mmHg 48%
    Show more